{"data":{"norad_id":67817,"epoch":"2026-05-25T02:27:10.099008Z","epoch_age_seconds":73174,"freshness":"FRESH","line1":"1 67817U 26032W   26145.10220022  .00006337  00000+0  19864-3 0  9998","line2":"2 67817  97.2849 333.2361 0003065  92.0170 268.1424 15.33413232 16667","mean_motion":15.33413232,"eccentricity":0.0003065,"inclination_deg":97.2849,"raan_deg":333.2361,"arg_perigee_deg":92.017,"mean_anomaly_deg":268.1424,"bstar":0.00019864,"rev_number":1666,"period_min":93.908150128706,"perigee_km":463.54007838313,"apogee_km":467.73531227136,"semimajor_km":6843.7746953272,"source":"CELESTRAK","updated_at":"2026-05-25T13:38:21.696273Z"}}